TimeCDT,TemperatureF,Dew PointF,Humidity,Sea Level PressureIn,VisibilityMPH,Wind Direction,Wind SpeedMPH,Gust SpeedMPH,PrecipitationIn,Events,Conditions,WindDirDegrees,DateUTC
12:53 AM,59.0,46.9,64,30.06,10.0,South,3.5,-,N/A,,Clear,170,2013-10-24 05:53:00
1:53 AM,53.1,48.0,83,30.07,10.0,SSE,3.5,-,N/A,,Clear,150,2013-10-24 06:53:00
2:53 AM,52.0,48.0,86,30.07,10.0,SE,3.5,-,N/A,,Clear,130,2013-10-24 07:53:00
3:53 AM,50.0,46.9,89,30.07,10.0,Calm,Calm,-,N/A,,Clear,0,2013-10-24 08:53:00
4:53 AM,48.9,46.0,90,30.09,10.0,Calm,Calm,-,N/A,,Clear,0,2013-10-24 09:53:00
5:53 AM,48.0,45.0,89,30.12,10.0,West,3.5,-,N/A,,Clear,280,2013-10-24 10:53:00
6:53 AM,48.9,46.0,90,30.14,10.0,Calm,Calm,-,N/A,,Clear,0,2013-10-24 11:53:00
7:53 AM,46.9,45.0,93,30.16,10.0,Calm,Calm,-,N/A,,Clear,0,2013-10-24 12:53:00
8:53 AM,55.9,50.0,80,30.18,10.0,Calm,Calm,-,N/A,,Clear,0,2013-10-24 13:53:00
9:53 AM,66.0,48.9,54,30.20,10.0,Calm,Calm,-,N/A,,Clear,0,2013-10-24 14:53:00
10:53 AM,72.0,45.0,38,30.20,10.0,NW,4.6,-,N/A,,Clear,310,2013-10-24 15:53:00
11:53 AM,75.9,46.9,36,30.21,10.0,NW,8.1,-,N/A,,Clear,310,2013-10-24 16:53:00
12:53 PM,75.9,48.0,37,30.20,10.0,North,5.8,-,N/A,,Clear,350,2013-10-24 17:53:00
1:53 PM,77.0,46.0,33,30.18,10.0,North,4.6,-,N/A,,Clear,350,2013-10-24 18:53:00
2:53 PM,78.1,46.0,32,30.17,10.0,Variable,3.5,-,N/A,,Clear,0,2013-10-24 19:53:00
3:53 PM,79.0,46.0,31,30.16,10.0,NNW,3.5,-,N/A,,Clear,340,2013-10-24 20:53:00
4:53 PM,79.0,46.0,31,30.16,10.0,North,4.6,-,N/A,,Clear,350,2013-10-24 21:53:00
5:53 PM,77.0,46.9,34,30.16,10.0,NNE,4.6,-,N/A,,Clear,30,2013-10-24 22:53:00
6:53 PM,72.0,50.0,46,30.17,10.0,NNE,5.8,-,N/A,,Clear,30,2013-10-24 23:53:00
7:53 PM,70.0,50.0,49,30.19,10.0,NNE,10.4,-,N/A,,Clear,30,2013-10-25 00:53:00
8:53 PM,68.0,48.9,50,30.21,10.0,NNE,10.4,-,N/A,,Clear,30,2013-10-25 01:53:00
9:53 PM,64.9,46.0,50,30.23,10.0,NE,11.5,-,N/A,,Clear,40,2013-10-25 02:53:00
10:53 PM,63.0,44.1,50,30.25,10.0,NNE,10.4,-,N/A,,Clear,30,2013-10-25 03:53:00
11:53 PM,60.1,44.1,55,30.27,10.0,NNE,8.1,-,N/A,,Clear,30,2013-10-25 04:53:00